Wetbulb
69.76 69.86 68.94 68.42 68.56 67.87 68.14 68.63 70.59 70.15 70.05 71.11 71.57 71.85 72.08 72.28 72.61 72.15 72.75 72.74 71.82 72.41 72.34 71.81 71.26 71.89 71.19 71.10 70.70 72.06 70.31 69.04 66.97 68.60 70.84 69.11 70.31 71.90 73.28 73.36 73.44 72.64 71.75
70.50 69.36 69.01 69.00 68.49 67.10 66.84 67.39 68.96 70.03 70.27 70.72 71.87 72.04 72.57 72.25 72.52 71.90 72.47 72.86 71.90 71.72 71.97 70.90 71.15 72.79 71.94 70.80 71.10 70.21 69.93 69.41 69.49 67.33 69.20 69.97 71.34 71.99 72.51 71.52 73.29 75.07 73.73
72.14 70.30 69.76 68.60 67.55 66.87 67.27 67.89 68.85 70.00 71.85 72.06 73.08 72.42 71.86 71.75 71.90 72.51 72.34 71.85 71.49 71.49 71.58 70.86 70.91 70.36 70.17 71.08 70.92 71.09 70.65 71.76 70.25 69.26 68.12 70.72 71.15 72.43 72.09 73.06 72.60 73.16 74.34
72.27 72.08 70.95 70.29 69.74 68.91 69.77 71.01 71.34 71.52 71.74 71.96 72.03 72.92 72.81 70.35 70.14 71.92 72.53 72.35 72.99 72.50 72.28 71.47 71.93 70.98 69.97 70.35 70.78 71.08 70.10 69.22 68.63 68.61 68.27 68.75 69.64 69.49 71.91 69.91 69.59 71.75 72.31
71.62 71.56 71.13 71.55 71.70 71.27 71.01 71.63 72.04 71.77 71.90 72.14 72.65 72.86 73.24 72.39 72.05 70.84 71.76 71.71 71.78 71.72 72.02 72.22 72.27 72.43 71.68 70.54 71.31 70.56 69.59 69.08 68.81 67.69 67.15 67.13 66.72 68.02 68.99 70.11 69.82 68.94 70.37
68.29 68.16 69.13 69.37 69.60 69.94 70.47 70.93 71.29 71.65 72.60 72.78 72.43 72.42 72.22 73.62 68.82 67.63 69.28 69.88 70.80 70.72 70.47 71.70 72.21 71.87 71.30 70.60 70.10 69.85 71.22 69.26 67.51 67.82 67.60 66.77 67.30 67.73 68.74 68.59 67.95 64.55 62.42
65.88 66.58 67.26 66.84 67.05 66.99 68.04 67.83 68.34 69.15 70.15 70.15 70.33 70.83 70.84 71.34 68.25 66.34 68.42 70.04 70.66 70.58 70.80 71.59 72.74 74.58 71.82 72.01 70.15 68.56 68.72 68.52 69.28 69.35 67.33 68.00 68.78 68.22 66.95 64.25 67.65 65.77 64.11
65.71 66.49 66.60 67.16 66.52 67.65 67.28 66.75 67.56 68.10 68.28 68.69 68.87 69.26 69.57 70.59 66.21 65.83 67.43 68.75 69.77 70.39 70.81 71.05 70.89 70.96 71.43 71.43 71.93 70.94 70.57 70.94 70.53 70.34 70.16 70.55 70.27 71.11 69.55 68.89 68.37 66.25 64.57
66.77 67.10 67.94 67.59 67.31 67.42 66.80 66.50 66.73 66.51 66.71 66.89 67.44 67.82 66.56 66.90 64.21 63.86 64.95 67.03 67.03 66.76 69.42 69.24 68.99 69.37 68.29 67.75 69.60 69.65 69.89 70.44 68.70 68.29 67.69 66.81 67.35 67.53 70.50 68.03 65.01 61.93 60.73
66.22 66.51 67.10 67.23 66.71 66.56 66.61 66.60 66.96 66.42 66.20 67.17 67.05 67.48 66.77 66.98 64.41 62.25 62.61 65.99 66.21 66.46 66.07 67.46 66.50 67.32 65.20 63.52 67.04 68.45 68.05 69.24 69.81 67.64 67.42 65.64 65.88 66.90 65.49 67.75 66.57 63.24 60.14
66.56 66.66 66.70 67.16 66.85 65.71 66.14 66.75 66.81 66.88 67.04 66.84 67.24 67.34 67.18 67.15 67.92 63.17 61.47 65.65 66.90 66.03 65.68 64.32 64.74 59.80 58.17 58.85 57.87 66.53 68.25 67.60 68.36 68.70 67.91 67.46 67.84 67.48 65.87 64.79 66.47 64.45 61.26
65.43 65.45 65.33 64.59 65.34 65.35 63.68 63.96 63.84 63.78 63.48 63.58 64.02 64.83 66.31 66.53 63.63 63.31 60.67 59.65 64.75 66.50 64.82 63.73 63.00 56.40 54.83 55.13 56.80 60.60 60.62 61.49 66.64 68.48 68.61 68.12 68.43 68.79 68.93 67.51 66.12 65.17 64.59
65.36 64.78 64.34 64.86 64.96 64.70 64.04 63.47 62.24 61.61 60.89 62.09 62.57 63.35 63.86 65.43 62.56 59.12 57.58 57.08 58.63 62.05 64.38 62.50 58.24 55.10 54.20 54.59 56.04 57.95 59.05 62.82 64.68 67.75 67.89 67.71 68.63 70.10 69.42 68.48 68.30 68.02 67.74
64.10 63.16 63.16 62.70 61.94 61.98 62.38 62.47 61.74 60.63 60.03 60.18 60.21 60.08 62.18 62.65 60.18 61.98 62.80 60.56 59.58 60.11 61.23 63.16 62.51 61.18 59.42 61.06 61.35 62.72 63.58 64.04 65.36 65.66 67.62 67.67 68.45 67.53 65.98 66.97 67.69 68.09 66.00
62.66 62.48 62.11 61.96 60.76 59.73 60.17 60.23 59.94 60.48 57.96 57.29 58.81 58.75 58.45 59.05 59.64 57.90 58.89 62.72 63.70 62.79 61.67 62.53 60.72 60.60 62.71 63.33 63.70 63.52 63.88 64.76 65.29 66.65 67.64 67.30 67.32 66.83 66.25 67.78 68.43 67.60 64.69
60.51 61.00 60.55 59.57 59.07 59.00 58.27 58.92 56.86 54.03 52.28 50.93 49.93 50.47 57.54 54.17 51.46 49.69 47.69 47.05 49.09 49.01 55.38 57.54 57.84 58.34 59.27 60.89 62.80 62.52 62.73 63.91 65.13 66.13 66.92 67.48 66.26 65.68 66.08 65.85 66.15 66.53 65.25
58.67 58.81 58.94 58.64 59.17 58.42 59.54 59.67 58.98 59.11 55.07 51.85 49.86 49.54 47.72 48.96 46.96 46.42 44.79 47.03 46.39 49.25 55.70 57.52 58.39 58.94 59.08 59.78 62.69 62.32 62.50 62.84 65.44 65.66 65.83 66.35 66.12 65.47 64.87 64.77 64.86 65.10 64.66
57.09 55.66 58.42 58.80 57.66 57.57 58.25 59.38 59.30 58.17 57.37 58.52 56.73 53.71 52.27 48.19 45.91 43.92 43.50 45.49 51.34 50.43 55.47 58.09 58.70 59.71 60.02 60.38 61.84 62.88 62.68 63.56 65.30 65.97 65.86 65.90 64.45 64.21 64.18 64.25 64.35 64.47 64.73
54.45 55.22 55.53 56.04 56.97 56.94 57.07 56.80 57.72 57.73 58.78 59.39 60.29 57.08 55.95 50.65 44.23 43.51 42.95 52.35 55.32 56.69 58.09 59.24 60.12 60.19 60.67 61.03 61.46 62.96 63.98 63.80 64.98 65.66 65.26 64.59 64.03 64.35 63.93 64.21 64.20 59.46 61.54
53.73 54.91 54.79 54.08 54.49 55.15 56.11 56.69 56.00 56.82 57.64 57.47 58.50 57.54 59.47 55.93 56.95 57.58 53.69 54.16 56.06 58.36 59.70 60.19 60.97 61.08 61.00 61.31 61.70 62.57 64.08 63.62 65.07 64.82 64.64 63.07 62.81 63.07 62.67 63.05 62.86 61.89 61.86
52.21 52.02 53.27 52.59 52.96 53.77 54.43 54.10 54.89 55.91 56.85 57.19 57.20 57.03 49.69 54.35 57.03 57.58 59.47 60.42 59.89 60.08 60.29 60.36 60.87 61.55 62.08 62.16 62.76 63.51 64.49 64.72 65.79 65.00 64.34 63.12 62.22 61.56 62.28 62.44 61.80 61.55 60.49
50.56 50.49 50.75 50.56 50.98 51.07 51.89 52.87 52.87 53.73 56.18 56.08 56.35 56.82 50.05 56.09 57.01 57.18 57.45 58.76 61.33 61.99 62.90 62.61 62.58 62.61 63.22 63.11 62.61 63.40 64.07 64.66 64.78 65.29 63.88 63.62 62.91 62.53 61.72 61.08 60.86 60.24 59.55
50.06 49.42 49.46 49.79 50.30 50.79 51.06 52.00 52.63 54.17 54.82 55.43 55.82 55.64 55.46 55.52 56.43 57.14 57.92 59.05 60.41 61.81 62.89 63.04 62.70 62.69 64.06 64.37 65.03 64.55 64.28 64.83 64.89 65.94 64.62 63.42 63.10 62.33 61.84 60.86 60.14 59.80 59.95
48.61 47.86 47.45 47.69 48.18 48.67 49.09 49.71 50.37 49.41 51.59 52.75 53.42 53.81 54.52 55.26 56.34 57.44 58.53 59.67 60.37 60.63 61.57 62.42 62.81 63.18 63.77 63.65 64.46 65.92 65.28 66.17 65.57 65.72 64.56 63.36 62.34 59.37 61.86 60.97 60.16 59.98 59.98
47.71 46.81 46.29 45.94 46.17 46.97 47.76 48.57 49.20 49.76 50.58 51.30 52.27 53.08 54.18 56.00 57.09 58.22 59.31 60.61 61.03 61.43 62.26 62.90 63.29 63.43 62.40 63.81 64.42 64.86 59.72 44.61 62.46 57.91 64.60 63.49 62.17 61.46 61.82 60.93 60.24 59.73 59.65
47.00 46.07 45.33 44.60 44.07 44.62 45.36 45.99 47.04 48.09 48.94 49.13 49.87 50.71 51.58 52.08 52.62 55.82 55.96 57.83 59.94 59.36 62.05 63.06 63.70 63.14 62.96 63.62 63.36 57.94 44.25 41.53 54.04 48.06 63.77 63.65 62.60 61.76 60.92 60.59 60.07 59.92 59.77
MSLP
1011.42 1011.72 1011.98 1011.89 1011.87 1012.09 1012.32 1012.26 1012.15 1011.68 1011.92 1012.21 1012.81 1012.77 1012.58 1011.85 1011.76 1011.71 1011.53 1011.60 1011.72 1011.84 1011.62 1012.04 1012.22 1012.32 1012.26 1012.30 1012.35 1012.45 1012.77 1013.19 1013.50 1012.84 1012.53 1013.29 1013.07 1012.67 1012.42 1011.80 1012.33 1012.26 1012.27
1011.14 1011.36 1011.56 1011.85 1011.83 1011.89 1011.97 1011.95 1011.81 1011.88 1011.92 1011.72 1011.70 1011.72 1011.60 1011.11 1011.22 1011.25 1011.10 1010.90 1011.16 1011.23 1011.24 1011.41 1011.91 1012.04 1011.96 1011.85 1012.10 1012.34 1012.36 1012.55 1012.88 1012.81 1012.44 1013.20 1013.16 1012.75 1012.60 1012.10 1011.91 1011.73 1011.83
1011.06 1011.35 1011.60 1011.93 1012.21 1012.09 1011.93 1011.88 1011.73 1011.74 1011.54 1011.26 1011.23 1011.27 1011.22 1010.94 1010.75 1010.61 1010.52 1010.51 1010.67 1010.81 1011.00 1011.26 1011.35 1011.62 1011.77 1011.75 1011.70 1011.77 1011.86 1011.87 1012.03 1012.18 1012.38 1012.10 1012.42 1012.37 1012.12 1011.85 1011.71 1011.59 1011.16
1011.24 1011.47 1011.76 1011.89 1011.94 1012.09 1011.90 1011.80 1011.73 1011.53 1011.29 1011.18 1010.95 1010.79 1010.70 1010.42 1010.46 1010.37 1010.30 1010.24 1010.29 1010.35 1010.68 1010.82 1010.76 1011.00 1011.31 1011.54 1011.75 1011.62 1011.56 1011.69 1011.85 1012.11 1012.14 1012.09 1011.93 1011.50 1011.55 1011.75 1011.77 1011.30 1011.03
1011.61 1011.74 1011.77 1011.61 1011.51 1011.51 1011.48 1011.40 1011.24 1011.02 1010.87 1010.55 1010.26 1010.27 1010.20 1010.21 1010.22 1010.25 1010.21 1010.07 1009.92 1010.03 1010.30 1010.26 1010.18 1010.51 1010.70 1011.06 1011.20 1011.15 1011.28 1011.36 1011.57 1011.75 1011.92 1011.96 1011.72 1011.58 1011.46 1011.27 1011.32 1011.17 1010.89
1011.64 1011.74 1011.73 1011.65 1011.62 1011.63 1011.50 1011.33 1011.16 1011.00 1010.76 1010.59 1010.37 1010.19 1010.05 1009.99 1009.92 1010.05 1010.05 1009.94 1009.94 1010.00 1010.00 1009.87 1009.78 1009.84 1010.06 1010.36 1010.35 1010.39 1010.64 1010.87 1010.96 1011.28 1011.36 1011.54 1011.45 1011.40 1011.38 1011.21 1010.99 1011.34 1011.37
1011.49 1011.52 1011.57 1011.57 1011.53 1011.47 1011.37 1011.35 1011.25 1011.09 1010.87 1010.66 1010.43 1010.23 1010.06 1009.81 1009.73 1009.81 1009.84 1009.82 1009.84 1009.66 1009.60 1009.52 1009.43 1009.40 1009.54 1009.69 1009.62 1009.45 1009.46 1009.78 1010.23 1010.39 1010.73 1010.83 1010.91 1010.82 1010.96 1011.05 1010.93 1011.06 1011.26
1011.26 1011.29 1011.31 1011.44 1011.46 1011.35 1011.32 1011.27 1011.13 1010.90 1010.85 1010.71 1010.38 1010.06 1009.90 1009.74 1009.55 1009.62 1009.53 1009.52 1009.46 1009.33 1009.17 1009.19 1009.18 1009.13 1009.07 1009.09 1009.08 1009.02 1008.91 1009.00 1009.31 1009.67 1009.96 1010.01 1010.21 1010.21 1010.25 1010.31 1010.58 1010.84 1011.02
1011.07 1011.09 1011.21 1011.38 1011.43 1011.44 1011.39 1011.33 1011.12 1010.86 1010.66 1010.47 1010.21 1010.05 1009.94 1009.68 1009.47 1009.31 1009.31 1009.29 1009.24 1009.24 1009.04 1008.87 1008.80 1008.78 1008.60 1008.65 1008.87 1008.86 1008.73 1008.53 1008.64 1008.56 1008.88 1009.47 1009.56 1009.63 1009.43 1009.99 1010.52 1010.89 1011.12
1011.44 1011.23 1011.28 1011.33 1011.54 1011.55 1011.48 1011.31 1011.04 1010.82 1010.63 1010.20 1010.01 1009.68 1009.32 1009.14 1008.85 1008.84 1009.03 1009.07 1009.10 1008.95 1008.74 1008.57 1008.41 1008.35 1008.30 1008.38 1008.68 1008.54 1008.55 1008.45 1008.28 1008.58 1008.85 1009.28 1009.42 1009.24 1009.04 1009.27 1009.92 1010.29 1010.63
1011.45 1011.18 1011.29 1011.30 1011.39 1011.45 1011.50 1011.31 1011.07 1010.94 1010.62 1010.35 1009.94 1009.35 1008.93 1008.50 1008.09 1007.82 1007.93 1008.38 1008.29 1008.37 1008.50 1008.40 1008.31 1008.37 1008.28 1008.27 1008.42 1008.36 1008.06 1008.04 1007.98 1008.04 1008.28 1008.52 1008.92 1009.23 1009.05 1009.04 1009.07 1009.35 1009.66
1011.03 1011.15 1011.26 1011.18 1011.14 1011.02 1011.05 1010.88 1010.71 1010.52 1010.24 1009.95 1009.55 1009.09 1008.52 1007.98 1007.48 1007.46 1007.19 1007.34 1007.18 1007.65 1007.90 1008.02 1008.17 1008.32 1008.25 1008.25 1008.23 1008.09 1008.00 1007.92 1008.01 1007.87 1007.89 1007.72 1007.83 1008.01 1008.12 1008.69 1008.85 1008.76 1008.68
1011.28 1011.25 1011.21 1011.10 1011.05 1010.87 1010.72 1010.40 1010.24 1010.00 1009.78 1009.45 1009.11 1008.72 1008.11 1007.54 1007.54 1007.24 1006.97 1007.18 1007.59 1007.85 1007.57 1007.59 1007.76 1007.87 1007.80 1007.70 1007.52 1007.52 1007.53 1007.66 1007.68 1007.18 1006.86 1006.74 1006.65 1006.81 1007.19 1007.97 1008.19 1008.39 1008.34
1011.25 1011.17 1011.11 1011.08 1010.89 1010.69 1010.42 1010.26 1009.99 1009.72 1009.43 1009.11 1008.83 1008.39 1007.72 1007.40 1007.14 1006.94 1006.81 1006.84 1007.01 1007.21 1007.25 1007.16 1007.18 1007.20 1007.19 1007.17 1007.20 1007.05 1007.04 1007.09 1006.90 1006.42 1006.07 1005.70 1005.67 1006.32 1006.58 1006.81 1007.45 1007.88 1008.43
1011.10 1011.02 1010.95 1010.91 1010.80 1010.56 1010.25 1010.08 1009.83 1009.50 1009.44 1009.42 1009.06 1008.58 1008.00 1007.38 1006.83 1006.44 1006.41 1006.52 1006.50 1006.47 1006.54 1006.80 1006.82 1006.82 1006.79 1006.72 1006.62 1006.48 1006.31 1006.23 1006.14 1005.89 1005.50 1005.39 1005.19 1005.69 1005.98 1006.17 1006.84 1007.35 1007.77
1011.53 1011.21 1011.00 1010.79 1010.56 1010.54 1010.16 1009.60 1009.22 1008.86 1008.56 1008.28 1007.99 1008.13 1007.47 1006.95 1006.41 1006.16 1006.08 1006.15 1006.23 1006.29 1006.74 1006.70 1006.63 1006.48 1006.30 1005.90 1005.70 1005.47 1005.35 1005.31 1005.26 1005.23 1004.99 1004.71 1004.86 1004.95 1005.18 1005.71 1005.68 1006.51 1006.87
1012.03 1011.60 1011.24 1010.83 1010.37 1010.32 1010.04 1009.63 1009.06 1008.33 1008.10 1007.68 1007.39 1007.03 1006.76 1006.68 1006.16 1005.82 1005.77 1006.11 1005.95 1006.40 1006.12 1005.71 1005.61 1005.48 1005.37 1005.14 1004.88 1004.65 1004.50 1004.36 1004.20 1004.49 1004.52 1004.32 1004.53 1004.75 1004.87 1005.02 1005.85 1006.09 1006.31
1012.28 1011.90 1011.53 1011.20 1010.68 1010.32 1009.98 1009.51 1009.06 1008.55 1007.83 1007.15 1006.72 1006.54 1006.30 1006.02 1005.68 1005.49 1005.62 1005.90 1006.06 1005.79 1005.35 1004.84 1004.53 1004.37 1004.37 1004.32 1004.13 1003.88 1003.69 1003.63 1003.59 1003.77 1003.86 1003.92 1004.18 1004.25 1004.68 1004.81 1004.84 1005.21 1005.75
1012.34 1011.90 1011.52 1011.02 1010.51 1010.07 1009.61 1009.04 1008.53 1007.98 1007.55 1007.05 1006.46 1006.11 1005.80 1005.39 1005.51 1005.65 1005.82 1005.71 1005.05 1004.42 1003.79 1003.56 1003.34 1003.18 1003.18 1003.14 1003.06 1002.94 1002.85 1002.81 1002.71 1002.89 1003.18 1003.34 1003.61 1003.99 1004.37 1004.64 1004.83 1005.13 1005.24
1012.36 1012.03 1011.68 1011.16 1010.51 1009.91 1009.25 1008.65 1008.23 1007.86 1007.32 1006.75 1006.26 1005.91 1005.33 1005.31 1005.39 1005.14 1004.85 1004.48 1004.13 1003.52 1002.95 1002.55 1002.29 1002.17 1002.08 1002.04 1001.89 1001.82 1001.86 1001.91 1001.89 1001.95 1002.40 1002.76 1003.10 1003.42 1003.75 1004.11 1004.46 1004.76 1005.08
1012.72 1012.17 1011.75 1011.19 1010.59 1009.98 1009.29 1008.76 1008.21 1007.65 1006.94 1006.39 1005.81 1005.48 1005.27 1005.21 1004.85 1004.56 1004.06 1003.43 1002.90 1002.35 1001.92 1001.70 1001.48 1001.20 1000.90 1000.84 1000.77 1000.82 1000.86 1000.93 1001.00 1001.08 1001.54 1002.14 1002.62 1002.82 1003.10 1003.62 1003.94 1004.23 1004.42
1012.82 1012.25 1011.68 1011.08 1010.46 1009.83 1009.25 1008.68 1008.09 1007.34 1006.58 1005.92 1005.47 1005.17 1004.85 1004.71 1004.24 1003.70 1003.21 1002.62 1001.92 1001.40 1000.94 1000.55 1000.29 1000.12 999.82 999.59 999.41 999.51 999.53 999.66 999.99 1000.40 1000.82 1001.28 1001.74 1002.32 1002.70 1003.28 1003.44 1003.86 1003.91
1012.69 1012.13 1011.49 1010.85 1010.20 1009.49 1008.84 1008.21 1007.59 1006.87 1006.36 1005.91 1005.51 1005.16 1004.83 1004.40 1003.79 1003.14 1002.43 1001.71 1001.17 1000.64 1000.21 999.83 999.32 998.90 998.51 998.26 998.13 998.01 998.14 998.36 998.55 998.87 999.75 1000.42 1000.91 1001.41 1002.05 1002.50 1002.80 1002.83 1003.21
1012.79 1012.32 1011.71 1011.06 1010.36 1009.75 1009.07 1008.41 1007.78 1007.08 1006.49 1005.93 1005.37 1004.97 1004.51 1003.93 1003.21 1002.46 1001.72 1000.95 1000.34 999.91 999.45 998.93 998.41 998.03 997.67 997.44 997.23 996.95 996.98 997.05 997.51 997.83 998.38 999.24 1000.01 1000.51 1001.14 1001.86 1002.13 1002.46 1002.86
1012.98 1012.52 1011.97 1011.36 1010.64 1009.91 1009.13 1008.43 1007.81 1007.22 1006.65 1006.05 1005.38 1004.75 1004.04 1003.37 1002.57 1001.78 1001.02 1000.14 999.61 998.87 998.30 997.87 997.35 996.86 996.51 996.27 995.81 995.84 995.86 996.04 996.49 997.18 997.78 998.24 998.89 999.56 1000.19 1000.85 1001.64 1002.25 1002.84
1013.20 1012.82 1012.33 1011.66 1011.03 1010.34 1009.58 1008.78 1008.01 1007.31 1006.66 1006.10 1005.51 1004.86 1004.23 1003.54 1002.85 1001.78 1001.15 1000.29 999.23 998.73 997.93 997.20 996.63 996.12 995.59 995.21 994.99 994.97 994.94 995.19 995.63 996.28 996.84 997.46 997.96 998.69 999.30 1000.06 1001.01 1001.85 1002.15
Wind_Speed
7 6 5 0 3 4 4 6 5 4 4 3 5 10 10 8 7 6 7 7 6 8 7 6 7 6 6 4 3 2 3 3 4 4 2 2 3 6 10 4 5 6 5
7 6 6 5 2 1 2 4 4 4 5 6 6 6 8 6 7 6 7 6 6 6 6 4 6 5 6 6 4 5 4 4 4 5 2 4 7 9 8 6 6 6 5
4 3 4 5 5 5 6 5 7 7 7 8 5 5 6 6 4 5 5 5 4 6 6 7 8 7 6 4 5 5 3 2 4 4 4 4 6 4 6 5 5 6 4
6 7 4 4 5 5 6 6 6 7 6 7 7 6 5 3 3 5 5 3 3 2 4 7 5 5 6 5 6 6 5 4 2 3 3 1 2 4 4 3 4 3 5
6 5 3 3 1 3 3 4 4 4 4 5 5 5 5 3 3 3 4 5 3 5 4 4 4 4 6 6 4 6 5 4 4 4 3 1 2 1 2 2 5 2 3
4 3 3 5 5 5 5 6 5 5 5 5 6 5 5 3 5 1 1 2 3 4 4 4 4 4 9 13 13 12 8 7 5 4 3 4 3 3 2 1 1 2 1
3 1 1 1 3 4 4 5 5 5 5 5 5 5 5 5 5 1 3 1 3 4 4 4 4 3 6 6 8 9 6 8 9 6 6 6 4 6 4 3 2 2 3
5 4 4 3 1 2 4 6 6 4 5 5 6 7 6 5 2 5 5 3 3 5 6 5 5 6 6 7 6 6 7 9 7 6 5 5 6 6 7 6 5 3 2
6 3 1 1 2 3 4 5 6 5 5 4 5 5 5 6 9 10 6 4 4 6 6 6 6 7 8 10 5 6 6 6 4 11 7 4 7 9 6 5 3 3 2
5 4 4 4 4 5 5 7 4 4 6 5 6 7 8 8 9 12 8 4 5 5 5 6 10 10 11 9 6 6 6 6 6 4 3 4 7 6 8 5 4 4 3
4 6 6 5 6 5 5 3 4 5 6 6 7 8 9 10 12 13 13 7 8 5 4 4 3 5 6 5 4 5 6 3 6 7 6 6 6 6 4 5 6 4 4
3 3 4 6 6 7 6 6 6 6 7 7 6 7 8 10 12 12 13 15 10 7 5 3 2 3 4 4 3 8 9 6 5 6 7 8 7 7 6 5 6 5 4
4 5 4 5 6 6 7 8 9 7 5 6 5 6 6 4 2 2 5 3 3 3 2 3 4 8 10 7 10 8 5 3 6 8 9 10 9 9 8 4 5 6 5
4 5 5 5 6 6 6 7 7 5 5 5 5 5 5 5 4 2 2 3 6 4 6 5 6 7 7 7 5 5 4 5 6 9 9 10 6 6 7 5 4 7 4
4 5 5 5 5 5 7 5 4 5 2 3 6 6 6 7 6 7 7 4 5 7 5 3 3 3 4 5 6 6 5 5 6 7 9 8 8 8 7 7 7 8 5
8 5 5 4 3 4 5 8 9 11 13 12 11 8 7 11 13 12 8 9 9 4 2 4 4 5 7 8 8 6 5 6 6 7 7 6 7 9 8 4 4 6 8
8 9 7 7 5 4 6 7 9 9 12 14 13 14 9 13 15 14 11 6 7 8 4 6 6 7 8 8 7 6 7 5 6 6 7 6 6 6 9 8 6 3 5
10 10 7 6 4 4 5 6 7 9 10 9 10 9 10 13 11 10 4 2 3 4 5 7 7 7 6 7 7 7 7 5 6 7 7 6 6 7 7 9 9 9 8
9 8 7 8 8 8 9 9 9 9 7 8 7 8 9 8 4 3 3 4 6 6 7 7 7 7 8 8 9 8 9 8 7 7 6 7 7 8 8 7 8 7 9
10 14 12 10 9 10 10 9 7 8 8 7 5 6 9 1 5 5 5 5 7 8 8 8 7 7 6 8 10 8 8 8 8 7 6 5 6 7 7 5 4 4 6
8 8 15 9 9 10 9 9 10 10 9 8 8 7 10 5 9 8 8 7 8 8 9 8 9 9 9 8 7 8 8 8 8 9 8 8 6 7 6 4 4 3 4
9 9 9 9 10 10 10 10 10 11 10 8 7 8 11 8 10 9 10 10 9 9 9 9 9 9 10 9 9 9 9 9 8 8 9 10 9 7 7 7 6 3 4
9 10 10 9 10 11 10 10 9 9 9 9 8 7 8 10 10 11 12 11 10 10 9 9 9 9 10 8 8 10 10 10 10 9 11 10 10 10 9 7 7 5 3
9 10 10 10 9 9 9 10 11 11 10 10 9 9 10 10 11 12 12 12 11 11 11 11 10 12 8 7 6 9 9 8 6 11 16 12 11 11 11 10 9 8 7
9 10 10 10 10 10 10 10 10 10 10 10 10 10 10 10 10 11 12 10 12 12 13 11 9 11 11 16 15 12 11 14 12 13 11 14 15 17 13 12 11 9 7
9 10 9 9 9 9 9 9 9 10 9 10 10 10 10 10 11 10 11 13 10 11 14 8 9 11 12 9 11 12 14 15 14 17 13 12 13 12 12 14 15 8 9
Wind_Direction
127 124 119 86 8 48 33 358 353 14 325 222 173 221 246 240 245 242 230 227 220 231 208 204 227 228 240 236 257 207 192 169 211 289 246 87 348 233 275 213 220 213 217
150 148 157 159 204 211 280 293 287 266 266 274 255 250 277 262 250 248 246 256 233 240 265 214 221 243 237 238 226 233 213 203 192 228 254 167 182 226 240 218 216 219 211
156 176 173 166 194 251 272 255 270 273 276 280 264 275 275 280 305 287 248 262 276 241 239 236 233 218 240 253 256 246 239 242 206 186 241 207 209 226 236 227 216 236 238
45 39 89 212 232 239 262 278 263 257 261 266 267 274 278 299 320 319 318 297 344 274 286 274 246 251 230 230 243 249 246 256 222 264 261 204 233 260 229 212 274 241 254
66 63 50 25 55 244 279 294 303 306 299 304 314 325 322 267 258 293 318 319 233 274 271 276 241 201 331 274 250 256 239 239 227 217 248 215 243 268 253 244 225 236 284
74 67 52 33 26 15 359 347 353 356 350 349 335 328 322 320 13 98 146 355 307 270 255 262 255 224 203 228 242 227 233 238 233 196 206 220 231 195 256 265 186 135 205
120 148 105 59 41 6 358 357 348 350 343 339 330 327 316 314 312 163 142 178 256 277 250 232 240 224 237 237 247 240 241 238 223 210 207 206 213 203 184 233 222 195 204
207 226 241 245 274 354 349 336 333 334 333 326 315 311 310 302 281 193 201 247 247 259 255 231 232 242 244 239 240 237 235 242 222 209 226 227 222 216 189 192 200 190 303
227 260 341 21 342 324 321 304 301 309 310 298 299 311 314 298 230 225 212 251 262 263 253 248 246 252 249 244 244 245 247 240 194 179 176 182 219 234 219 131 186 129 263
67 45 26 9 351 334 308 296 278 275 282 287 285 285 279 277 244 230 219 227 249 249 261 260 251 245 245 255 235 241 250 234 181 172 196 194 188 214 185 173 170 185 178
46 33 13 7 10 341 329 313 306 301 291 283 283 284 280 277 278 256 220 213 221 219 230 262 268 69 59 25 264 266 244 278 225 198 205 201 188 210 219 240 205 184 180
35 13 348 340 328 319 304 298 286 283 281 274 266 274 272 271 269 288 277 224 228 205 214 232 281 213 288 274 266 254 270 288 265 222 214 210 205 201 197 206 226 219 197
338 330 322 308 294 291 293 300 301 290 273 273 263 268 271 272 254 15 28 59 120 290 268 269 285 268 278 275 245 234 245 246 256 243 223 217 207 203 178 175 190 214 200
294 286 285 290 291 286 291 288 283 284 287 284 282 266 265 271 272 253 158 171 198 198 247 253 246 258 243 259 277 252 217 229 250 252 234 225 201 186 192 178 197 185 176
301 296 291 276 281 299 291 286 305 302 292 303 313 306 299 293 269 235 221 210 198 211 210 241 262 248 250 230 229 234 228 225 243 256 245 232 198 182 190 191 195 187 181
345 326 296 301 322 309 305 299 278 278 291 295 277 232 287 267 281 288 276 264 260 223 152 216 238 244 250 249 236 229 218 213 237 255 265 236 204 190 180 152 178 197 197
340 329 320 307 291 315 301 299 304 298 282 289 293 293 270 252 287 298 307 309 201 150 205 214 223 231 243 251 235 224 235 215 215 238 248 228 189 185 183 168 195 198 198
336 328 333 321 308 298 287 295 290 288 292 296 295 289 289 275 275 275 287 193 236 225 235 235 243 243 234 238 248 233 233 219 218 232 225 208 195 184 186 187 192 195 191
321 315 311 305 303 298 294 280 281 284 280 286 291 296 293 310 318 288 204 246 259 250 241 232 224 228 232 230 240 243 226 223 211 209 211 196 183 182 199 208 199 200 190
323 324 325 319 311 305 299 298 308 306 294 279 257 271 296 248 297 281 231 233 242 253 259 254 255 251 242 232 236 234 217 221 214 199 199 195 182 183 176 177 177 188 213
320 315 314 304 308 307 307 308 304 302 290 284 285 280 290 321 304 298 289 264 245 249 255 254 257 253 250 242 229 226 211 217 218 198 188 190 183 170 157 152 150 193 246
317 311 308 303 301 299 297 297 295 288 296 295 300 296 300 294 293 293 293 289 281 275 271 258 253 252 255 246 230 233 219 212 210 196 192 189 178 169 156 165 149 160 204
315 313 309 305 303 295 295 292 291 301 313 313 315 314 310 299 291 289 286 284 285 278 276 277 268 267 252 240 226 224 219 216 214 190 189 189 185 171 170 179 172 148 105
329 326 320 314 310 308 305 304 301 296 298 298 298 300 296 289 284 281 282 282 282 280 275 268 261 258 247 256 255 244 220 210 183 186 179 181 186 178 176 174 182 179 161
339 334 330 327 325 322 320 319 319 316 312 307 302 293 289 296 293 288 286 282 283 276 277 277 267 245 249 253 242 232 216 197 180 178 186 181 182 181 183 181 184 186 180
347 340 337 338 331 325 320 317 316 316 320 323 316 311 310 314 305 307 314 304 314 320 304 294 290 276 266 263 246 242 219 195 179 182 183 186 180 185 175 173 178 189 186